| time (UTC) | temp F | wind direction | speed MPH | gust MPH | rain 1hr in | rain 24hr in | rain mn in | humidity % | barometer mb |
| 20260502181157 | 63 | 192 | 8.0 | 15.0 | 0.07 | 0.09 | 0.09 | 77 | 1014.2 |
| 20260502170201 | 72 | 147 | 2.0 | 5.0 | 0.01 | 0.00 | 0.01 | 68 | 1013.6 |
| 20260502163718 | 74 | 162 | 4.0 | 14.0 | 0.00 | 0.00 | 0.00 | 61 | 1013.8 |
| 20260502163152 | 75 | 113 | 5.0 | 10.0 | 0.00 | 0.00 | 0.00 | 59 | 1014.0 |
| 20260502162155 | 76 | 24 | 1.0 | 5.0 | 0.00 | 0.00 | 0.00 | 54 | 1014.0 |
| 20260502160719 | 77 | 309 | 3.0 | 4.0 | 0.00 | 0.00 | 0.00 | 52 | 1013.9 |
| 20260502160634 | 77 | 274 | 4.0 | 6.0 | 0.00 | 0.00 | 0.00 | 53 | 1014.2 |
| 20260502151714 | 77 | 233 | 3.0 | 9.0 | 0.00 | 0.00 | 0.00 | 52 | 1014.7 |
| 20260502151155 | 78 | 221 | 5.0 | 10.0 | 0.00 | 0.00 | 0.00 | 51 | 1014.8 |
| 20260502150148 | 78 | 255 | 4.0 | 9.0 | 0.00 | 0.00 | 0.00 | 52 | 1015.0 |
| 20260502123711 | 77 | 250 | 7.0 | 15.0 | 0.00 | 0.00 | 0.00 | 52 | 1016.6 |
| 20260502122712 | 78 | 171 | 8.0 | 12.0 | 0.00 | 0.00 | 0.00 | 52 | 1016.8 |
| 20260502122148 | 77 | 240 | 5.0 | 16.0 | 0.00 | 0.00 | 0.00 | 53 | 1017.1 |
| 20260502120711 | 77 | 233 | 7.0 | 15.0 | 0.00 | 0.00 | 0.00 | 52 | 1017.1 |
| 20260502120145 | 78 | 183 | 5.0 | 14.0 | 0.00 | 0.00 | 0.00 | 53 | 1017.1 |
| 20260502114709 | 77 | 234 | 8.0 | 14.0 | 0.00 | 0.00 | 0.00 | 54 | 1017.1 |
| 20260502114155 | 77 | 237 | 5.0 | 11.0 | 0.00 | 0.00 | 0.00 | 54 | 1017.3 |
| 20260502112712 | 77 | 244 | 6.0 | 13.0 | 0.00 | 0.00 | 0.00 | 53 | 1017.5 |
| 20260502111709 | 76 | 276 | 6.0 | 13.0 | 0.00 | 0.00 | 0.00 | 54 | 1017.5 |
| 20260502110710 | 76 | 245 | 5.0 | 13.0 | 0.00 | 0.00 | 0.00 | 56 | 1017.6 |
| 20260502110151 | 75 | 186 | 5.0 | 13.0 | 0.00 | 0.00 | 0.00 | 55 | 1017.7 |
| 20260502104708 | 74 | 179 | 4.0 | 16.0 | 0.00 | 0.00 | 0.00 | 54 | 1017.8 |
| 20260502103710 | 74 | 203 | 5.0 | 12.0 | 0.00 | 0.00 | 0.00 | 57 | 1018.0 |
| 20260502103142 | 75 | 250 | 5.0 | 13.0 | 0.00 | 0.00 | 0.00 | 57 | 1018.1 |
| 20260502101708 | 74 | 238 | 4.0 | 12.0 | 0.00 | 0.00 | 0.00 | 57 | 1018.1 |
| 20260502100707 | 73 | 228 | 7.0 | 11.0 | 0.00 | 0.00 | 0.00 | 58 | 1018.3 |
| 20260502090709 | 69 | 237 | 4.0 | 7.0 | 0.00 | 0.00 | 0.00 | 61 | 1018.6 |
| 20260502070704 | 62 | 223 | 5.0 | 7.0 | 0.00 | 0.00 | 0.00 | 61 | 1019.0 |
| 20260502065706 | 60 | 135 | 3.0 | 5.0 | 0.00 | 0.00 | 0.00 | 63 | 1019.1 |
| 20260502064706 | 58 | 149 | 1.0 | 3.0 | 0.00 | 0.00 | 0.00 | 62 | 1019.1 |
| 20260502063704 | 57 | 161 | 1.0 | 2.0 | 0.00 | 0.00 | 0.00 | 64 | 1019.1 |
| 20260502062704 | 56 | 140 | 2.0 | 3.0 | 0.00 | 0.00 | 0.00 | 65 | 1019.0 |
| 20260502062629 | 56 | 140 | 1.0 | 3.0 | 0.00 | 0.00 | 0.00 | 65 | 1019.0 |
| 20260502061621 | 55 | 141 | 1.0 | 3.0 | 0.00 | 0.00 | 0.00 | 66 | 1019.0 |
| 20260502060620 | 55 | 148 | 1.0 | 5.0 | 0.00 | 0.00 | 0.00 | 66 | 1019.0 |
| 20260502054702 | 55 | 138 | 3.0 | 6.0 | 0.00 | 0.00 | 0.00 | 65 | 1019.0 |
| 20260502053705 | 55 | 155 | 2.0 | 4.0 | 0.00 | 0.00 | 0.00 | 67 | 1019.0 |
| 20260502052703 | 54 | 145 | 0.0 | 3.0 | 0.00 | 0.00 | 0.00 | 67 | 1018.9 |
| 20260502051702 | 54 | 144 | 2.0 | 4.0 | 0.00 | 0.00 | 0.00 | 66 | 1018.7 |
| 20260502050701 | 52 | 125 | 2.0 | 4.0 | 0.00 | 0.00 | 0.00 | 68 | 1018.7 |
| 20260502045700 | 51 | 131 | 2.0 | 5.0 | 0.00 | 0.00 | 0.00 | 69 | 1018.9 |
| 20260502044700 | 51 | 144 | 4.0 | 5.0 | 0.00 | 0.00 | 0.00 | 69 | 1018.8 |
| 20260502044137 | 51 | 147 | 4.0 | 6.0 | 0.00 | 0.00 | 0.00 | 68 | 1018.8 |
| 20260502042700 | 51 | 131 | 4.0 | 5.0 | 0.00 | 0.00 | 0.00 | 68 | 1018.9 |
| 20260502041659 | 51 | 158 | 3.0 | 5.0 | 0.00 | 0.00 | 0.00 | 68 | 1018.9 |
| 20260502040700 | 51 | 162 | 3.0 | 6.0 | 0.00 | 0.00 | 0.00 | 68 | 1019.0 |
| 20260502035701 | 50 | 142 | 5.0 | 6.0 | 0.00 | 0.00 | 0.00 | 70 | 1019.1 |
| 20260502034704 | 49 | 140 | 3.0 | 4.0 | 0.00 | 0.00 | 0.00 | 72 | 1019.0 |
| 20260502033700 | 49 | 141 | 1.0 | 3.0 | 0.00 | 0.00 | 0.00 | 71 | 1019.2 |
| 20260502032659 | 49 | 142 | 2.0 | 4.0 | 0.00 | 0.00 | 0.00 | 71 | 1019.1 |
| 20260502031701 | 49 | 142 | 1.0 | 4.0 | 0.00 | 0.00 | 0.00 | 72 | 1019.2 |
| 20260502030659 | 48 | 148 | 2.0 | 4.0 | 0.00 | 0.00 | 0.00 | 72 | 1019.1 |
| 20260502025659 | 48 | 140 | 2.0 | 3.0 | 0.00 | 0.00 | 0.00 | 73 | 1019.2 |
| 20260502025135 | 48 | 138 | 2.0 | 3.0 | 0.00 | 0.00 | 0.00 | 73 | 1019.3 |
| 20260502023658 | 48 | 114 | 1.0 | 2.0 | 0.00 | 0.00 | 0.00 | 74 | 1019.4 |
| 20260502023137 | 48 | 114 | 0.0 | 2.0 | 0.00 | 0.00 | 0.00 | 74 | 1019.4 |
| 20260502021659 | 48 | 114 | 0.0 | 2.0 | 0.00 | 0.00 | 0.00 | 74 | 1019.5 |
| 20260502020658 | 48 | 113 | 0.0 | 3.0 | 0.00 | 0.00 | 0.00 | 74 | 1019.6 |
| 20260502020131 | 48 | 114 | 0.0 | 3.0 | 0.00 | 0.00 | 0.00 | 74 | 1019.6 |
| 20260502015133 | 48 | 114 | 0.0 | 2.0 | 0.00 | 0.00 | 0.00 | 73 | 1019.8 |
| 20260502013658 | 48 | 114 | 0.0 | 3.0 | 0.00 | 0.00 | 0.00 | 73 | 1019.8 |
| 20260502012657 | 48 | 0 | 1.0 | 2.0 | 0.00 | 0.00 | 0.00 | 73 | 1019.8 |
| 20260502012147 | 49 | 0 | 1.0 | 3.0 | 0.00 | 0.00 | 0.00 | 72 | 1019.8 |
| 20260502010658 | 49 | 114 | 0.0 | 0.0 | 0.00 | 0.00 | 0.00 | 73 | 1019.8 |
| 20260502005657 | 49 | 114 | 0.0 | 0.0 | 0.00 | 0.00 | 0.00 | 73 | 1020.0 |
| 20260502004656 | 49 | 114 | 0.0 | 0.0 | 0.00 | 0.00 | 0.00 | 71 | 1020.1 |
| 20260502003656 | 49 | 114 | 0.0 | 0.0 | 0.00 | 0.00 | 0.00 | 72 | 1020.1 |
| 20260502002655 | 50 | 114 | 0.0 | 0.0 | 0.00 | 0.00 | 0.00 | 71 | 1020.2 |
| 20260502001655 | 50 | 114 | 0.0 | 0.0 | 0.00 | 0.00 | 0.00 | 70 | 1020.3 |
| 20260502000655 | 50 | 114 | 0.0 | 1.0 | 0.00 | 0.00 | 0.00 | 70 | 1020.3 |
| 20260502000143 | 50 | 114 | 1.0 | 2.0 | 0.00 | 0.00 | 0.00 | 70 | 1020.4 |
| 20260501234655 | 51 | 114 | 0.0 | 0.0 | 0.00 | 0.00 | 0.00 | 70 | 1020.6 |
| 20260501233655 | 51 | 114 | 0.0 | 0.0 | 0.00 | 0.00 | 0.00 | 69 | 1020.6 |
| 20260501232659 | 51 | 114 | 0.0 | 1.0 | 0.00 | 0.00 | 0.00 | 68 | 1020.7 |
| 20260501231656 | 52 | 114 | 0.0 | 1.0 | 0.00 | 0.00 | 0.00 | 68 | 1020.8 |
| 20260501230653 | 52 | 114 | 0.0 | 2.0 | 0.00 | 0.00 | 0.00 | 68 | 1020.9 |
| 20260501225654 | 53 | 114 | 0.0 | 1.0 | 0.00 | 0.00 | 0.00 | 67 | 1020.9 |
| 20260501224654 | 53 | 114 | 0.0 | 1.0 | 0.00 | 0.00 | 0.00 | 67 | 1021.0 |
| 20260501224132 | 53 | 114 | 0.0 | 1.0 | 0.00 | 0.00 | 0.00 | 66 | 1021.0 |
| 20260501222653 | 54 | 114 | 1.0 | 2.0 | 0.00 | 0.00 | 0.00 | 66 | 1020.9 |
| 20260501221652 | 54 | 114 | 1.0 | 2.0 | 0.00 | 0.00 | 0.00 | 65 | 1020.9 |
| 20260501220653 | 55 | 114 | 1.0 | 2.0 | 0.00 | 0.00 | 0.00 | 63 | 1020.9 |
| 20260501215654 | 56 | 114 | 1.0 | 3.0 | 0.00 | 0.00 | 0.00 | 64 | 1021.0 |
| 20260501215130 | 57 | 114 | 2.0 | 4.0 | 0.00 | 0.00 | 0.00 | 61 | 1020.9 |
| 20260501213652 | 57 | 124 | 3.0 | 4.0 | 0.00 | 0.00 | 0.00 | 59 | 1021.0 |
| 20260501212651 | 58 | 147 | 2.0 | 3.0 | 0.00 | 0.00 | 0.00 | 58 | 1021.0 |
| 20260501211651 | 59 | 147 | 2.0 | 4.0 | 0.00 | 0.00 | 0.00 | 57 | 1021.1 |
| 20260501210652 | 59 | 155 | 3.0 | 5.0 | 0.00 | 0.00 | 0.00 | 58 | 1021.1 |
| 20260501205652 | 60 | 148 | 3.0 | 5.0 | 0.00 | 0.00 | 0.00 | 53 | 1021.1 |
| 20260501204652 | 60 | 147 | 2.0 | 4.0 | 0.00 | 0.00 | 0.00 | 53 | 1021.0 |
| 20260501204128 | 60 | 185 | 2.0 | 4.0 | 0.00 | 0.00 | 0.00 | 53 | 1021.1 |
| 20260501202652 | 61 | 168 | 1.0 | 3.0 | 0.00 | 0.00 | 0.00 | 51 | 1021.1 |
| 20260501201652 | 62 | 159 | 2.0 | 4.0 | 0.00 | 0.00 | 0.00 | 49 | 1021.1 |
| 20260501200649 | 64 | 137 | 3.0 | 5.0 | 0.00 | 0.00 | 0.00 | 46 | 1020.9 |
| 20260501195651 | 64 | 134 | 4.0 | 9.0 | 0.00 | 0.00 | 0.00 | 45 | 1020.9 |
| 20260501194649 | 65 | 127 | 4.0 | 7.0 | 0.00 | 0.00 | 0.00 | 44 | 1020.8 |
| 20260501193652 | 65 | 149 | 4.0 | 6.0 | 0.00 | 0.00 | 0.00 | 43 | 1020.8 |
| 20260501192649 | 66 | 134 | 4.0 | 9.0 | 0.00 | 0.00 | 0.00 | 42 | 1020.7 |
| 20260501191648 | 67 | 138 | 4.0 | 10.0 | 0.00 | 0.00 | 0.00 | 40 | 1020.6 |
| 20260501190650 | 68 | 148 | 6.0 | 11.0 | 0.00 | 0.00 | 0.00 | 38 | 1020.6 |
| 20260501185649 | 69 | 141 | 5.0 | 11.0 | 0.00 | 0.00 | 0.00 | 37 | 1020.6 |
| 20260501185132 | 70 | 128 | 5.0 | 13.0 | 0.00 | 0.00 | 0.00 | 37 | 1020.5 |
| 20260501183649 | 70 | 173 | 6.0 | 12.0 | 0.00 | 0.00 | 0.00 | 36 | 1020.5 |
| 20260501182649 | 71 | 141 | 7.0 | 12.0 | 0.00 | 0.00 | 0.00 | 35 | 1020.5 |
| 20260501181648 | 71 | 123 | 6.0 | 13.0 | 0.00 | 0.00 | 0.00 | 34 | 1020.6 |